Location: Devargunta
(16.7631°N, 80.9077°E)
Time: 16:13:33
(UTC+00:00)

Cosmos 540 Rocket - Pass Details

Date: 04 December 2021
Orbit: 739 x 754 km, 74.1° (Epoch: 17 January)

Event Time Altitude Azimuth Distance (km) Brightness Sun altitude
Exits shadow 22:52:56 56° 184° (S) 887 3.8 -27.6°
Drops below altitude 10° 22:57:00 10° 171° (S) 2,266 6.2 -26.6°
Sets 22:59:21 0° 170° (S) 3,190 7.1 -26.1°
